• In Uzbekistan
  • List of Countries
  • For 7 days
  • Water Temperature
  • Satellite Maps
  • Weather Map
  • Weather Widgets
  • user-avatar
    Login

    Hourly Weather Wagga Wagga

    Today, 18 December, Monday

    Time Temperature Precipitation Wind Pressure Humidity
    00:00 +26°C° 0 mm 6 mps 738 mmHg 64%
    01:00 +25°C° 0 mm 5 mps 738 mmHg 68%
    02:00 +23°C° 0 mm 5 mps 738 mmHg 69%
    03:00 +23°C° 0 mm 4 mps 738 mmHg 71%
    04:00 +22°C° 0 mm 3 mps 738 mmHg 71%
    05:00 +24°C° 0 mm 3 mps 738 mmHg 69%
    06:00 +25°C° 0 mm 3 mps 738 mmHg 67%
    07:00 +26°C° 0 mm 3 mps 738 mmHg 65%
    08:00 +28°C° 0 mm 3 mps 738 mmHg 57%
    09:00 +31°C° 0 mm 3 mps 737 mmHg 49%
    10:00 +34°C° 0 mm 3 mps 737 mmHg 41%
    11:00 +36°C° 0 mm 3 mps 737 mmHg 37%
    12:00 +37°C° 0 mm 2 mps 736 mmHg 32%
    13:00 +39°C° 0 mm 2 mps 736 mmHg 28%
    14:00 +39°C° 0 mm 2 mps 735 mmHg 27%
    15:00 +39°C° 0 mm 2 mps 735 mmHg 26%
    16:00 +39°C° 0 mm 3 mps 734 mmHg 25%
    17:00 +38°C° 0 mm 3 mps 734 mmHg 28%
    18:00 +36°C° 0 mm 3 mps 734 mmHg 31%
    19:00 +35°C° 0 mm 3 mps 734 mmHg 34%
    20:00 +34°C° 0 mm 3 mps 734 mmHg 37%
    21:00 +33°C° 0 mm 3 mps 734 mmHg 40%
    22:00 +31°C° 0 mm 3 mps 734 mmHg 43%
    23:00 +30°C° 0 mm 3 mps 734 mmHg 46%

    Tomorrow, 19 December, Tuesday

    Time Temperature Precipitation Wind Pressure Humidity
    00:00 +29°C° 0 mm 4 mps 734 mmHg 48%
    01:00 +29°C° 0 mm 4 mps 734 mmHg 51%
    02:00 +28°C° 0 mm 5 mps 733 mmHg 54%
    03:00 +28°C° 0 mm 5 mps 733 mmHg 57%
    04:00 +28°C° 0 mm 5 mps 733 mmHg 60%
    05:00 +29°C° 0 mm 6 mps 733 mmHg 56%
    06:00 +29°C° 0 mm 6 mps 733 mmHg 52%
    07:00 +30°C° 0 mm 7 mps 733 mmHg 49%
    08:00 +35°C° 0 mm 7 mps 733 mmHg 40%
    09:00 +39°C° 0 mm 6 mps 732 mmHg 30%
    10:00 +42°C° 0 mm 6 mps 732 mmHg 21%
    11:00 +44°C° 0 mm 7 mps 732 mmHg 18%
    12:00 +46°C° 0 mm 8 mps 731 mmHg 14%
    13:00 +49°C° 0 mm 9 mps 731 mmHg 10%
    14:00 +48°C° 0 mm 9 mps 731 mmHg 11%
    15:00 +47°C° 0 mm 9 mps 731 mmHg 13%
    16:00 +45°C° 0 mm 9 mps 731 mmHg 14%
    17:00 +41°C° 0 mm 7 mps 731 mmHg 19%
    18:00 +38°C° 0 mm 4 mps 731 mmHg 25%
    19:00 +36°C° 0 mm 2 mps 731 mmHg 30%
    20:00 +35°C° 0 mm 2 mps 731 mmHg 30%
    21:00 +35°C° 0 mm 2 mps 732 mmHg 31%
    22:00 +34°C° 0 mm 2 mps 732 mmHg 31%
    23:00 +33°C° 0 mm 3 mps 732 mmHg 36%

    Day after tomorrow, 20 December, Wednesday

    Time Temperature Precipitation Wind Pressure Humidity
    00:00 +31°C° 0 mm 3 mps 732 mmHg 40%
    01:00 +30°C° 0 mm 3 mps 732 mmHg 45%
    02:00 +29°C° 0.2 mm 3 mps 732 mmHg 49%
    03:00 +29°C° 0.2 mm 2 mps 732 mmHg 54%
    04:00 +28°C° 0.2 mm 2 mps 732 mmHg 58%
    05:00 +27°C° 0.2 mm 3 mps 733 mmHg 60%
    06:00 +26°C° 0.2 mm 3 mps 733 mmHg 63%
    07:00 +25°C° 0.2 mm 4 mps 734 mmHg 65%
    08:00 +23°C° 0.5 mm 4 mps 735 mmHg 64%
    09:00 +23°C° 0.5 mm 4 mps 735 mmHg 63%
    10:00 +22°C° 0.5 mm 4 mps 736 mmHg 61%
    11:00 +21°C° 1.2 mm 3 mps 736 mmHg 63%
    12:00 +21°C° 1.2 mm 3 mps 736 mmHg 65%
    13:00 +20°C° 1.2 mm 3 mps 737 mmHg 66%
    14:00 +21°C° 0.1 mm 3 mps 737 mmHg 60%
    15:00 +22°C° 0.1 mm 3 mps 737 mmHg 54%
    16:00 +24°C° 0.1 mm 2 mps 737 mmHg 49%
    17:00 +24°C° 0 mm 2 mps 737 mmHg 48%
    18:00 +24°C° 0 mm 2 mps 737 mmHg 48%
    19:00 +24°C° 0 mm 1 mps 738 mmHg 48%
    20:00 +23°C° 0 mm 1 mps 738 mmHg 52%
    21:00 +21°C° 0 mm 2 mps 739 mmHg 56%
    22:00 +19°C° 0 mm 2 mps 740 mmHg 59%
    23:00 +19°C° 0 mm 2 mps 740 mmHg 63%

    21 December, Thursday

    Time Temperature Precipitation Wind Pressure Humidity
    00:00 +18°C° 0 mm 2 mps 740 mmHg 67%
    01:00 +18°C° 0 mm 2 mps 740 mmHg 70%
    02:00 +18°C° 0 mm 1 mps 740 mmHg 72%
    03:00 +18°C° 0 mm 1 mps 740 mmHg 74%
    04:00 +16°C° 0 mm 1 mps 741 mmHg 77%
    05:00 +18°C° 0 mm 1 mps 741 mmHg 73%
    06:00 +19°C° 0 mm 2 mps 741 mmHg 69%
    07:00 +20°C° 0 mm 2 mps 742 mmHg 65%
    08:00 +23°C° 0 mm 2 mps 742 mmHg 57%
    09:00 +24°C° 0 mm 2 mps 742 mmHg 50%
    10:00 +26°C° 0 mm 2 mps 742 mmHg 42%
    11:00 +28°C° 0 mm 2 mps 742 mmHg 37%
    12:00 +29°C° 0 mm 1 mps 741 mmHg 32%
    13:00 +31°C° 0 mm 1 mps 741 mmHg 27%
    14:00 +31°C° 0 mm 2 mps 740 mmHg 26%
    15:00 +31°C° 0 mm 2 mps 740 mmHg 24%
    16:00 +31°C° 0 mm 3 mps 739 mmHg 23%
    17:00 +30°C° 0 mm 3 mps 739 mmHg 25%
    18:00 +29°C° 0 mm 3 mps 739 mmHg 27%
    19:00 +28°C° 0 mm 3 mps 740 mmHg 29%
    20:00 +26°C° 0 mm 2 mps 740 mmHg 30%
    21:00 +25°C° 0 mm 2 mps 741 mmHg 31%
    22:00 +24°C° 0 mm 2 mps 741 mmHg 32%
    23:00 +23°C° 0 mm 2 mps 741 mmHg 38%

    22 December, Friday

    Time Temperature Precipitation Wind Pressure Humidity
    00:00 +21°C° 0 mm 3 mps 741 mmHg 45%
    01:00 +20°C° 0 mm 3 mps 740 mmHg 51%
    02:00 +20°C° 0 mm 3 mps 740 mmHg 59%
    03:00 +19°C° 0 mm 3 mps 740 mmHg 67%
    04:00 +18°C° 0 mm 3 mps 740 mmHg 76%
    05:00 +19°C° 0 mm 3 mps 740 mmHg 73%
    06:00 +20°C° 0 mm 3 mps 741 mmHg 70%
    07:00 +21°C° 0 mm 3 mps 741 mmHg 67%
    08:00 +24°C° 0 mm 2 mps 741 mmHg 58%
    09:00 +27°C° 0 mm 2 mps 741 mmHg 48%
    10:00 +29°C° 0 mm 1 mps 741 mmHg 38%
    11:00 +30°C° 0 mm 2 mps 740 mmHg 33%
    12:00 +31°C° 0 mm 2 mps 739 mmHg 28%
    13:00 +32°C° 0 mm 2 mps 739 mmHg 22%
    14:00 +33°C° 0 mm 3 mps 738 mmHg 21%
    15:00 +34°C° 0 mm 3 mps 738 mmHg 20%
    16:00 +34°C° 0 mm 3 mps 737 mmHg 18%
    17:00 +33°C° 0 mm 3 mps 737 mmHg 21%
    18:00 +31°C° 0 mm 2 mps 737 mmHg 23%
    19:00 +29°C° 0 mm 2 mps 737 mmHg 26%
    20:00 +28°C° 0 mm 2 mps 738 mmHg 28%
    21:00 +27°C° 0 mm 2 mps 738 mmHg 29%
    22:00 +25°C° 0 mm 1 mps 738 mmHg 31%
    23:00 +25°C° 0 mm 2 mps 738 mmHg 33%

    23 December, Saturday

    Time Temperature Precipitation Wind Pressure Humidity
    00:00 +24°C° 0 mm 2 mps 738 mmHg 35%
    01:00 +23°C° 0 mm 2 mps 737 mmHg 38%
    02:00 +23°C° 0 mm 2 mps 737 mmHg 40%
    03:00 +21°C° 0 mm 2 mps 737 mmHg 41%
    04:00 +21°C° 0 mm 2 mps 737 mmHg 43%
    05:00 +23°C° 0 mm 2 mps 737 mmHg 42%
    06:00 +24°C° 0 mm 2 mps 738 mmHg 41%
    07:00 +25°C° 0 mm 2 mps 738 mmHg 40%
    08:00 +28°C° 0 mm 3 mps 738 mmHg 33%
    09:00 +30°C° 0 mm 3 mps 738 mmHg 26%
    10:00 +34°C° 0 mm 3 mps 738 mmHg 20%
    11:00 +35°C° 0 mm 4 mps 737 mmHg 18%
    12:00 +36°C° 0 mm 4 mps 737 mmHg 15%
    13:00 +37°C° 0 mm 5 mps 736 mmHg 13%
    14:00 +36°C° 0 mm 5 mps 736 mmHg 14%
    15:00 +36°C° 0 mm 6 mps 735 mmHg 14%
    16:00 +36°C° 0 mm 6 mps 735 mmHg 14%
    17:00 +35°C° 0 mm 5 mps 735 mmHg 17%
    18:00 +33°C° 0 mm 3 mps 736 mmHg 19%
    19:00 +30°C° 0 mm 2 mps 736 mmHg 22%
    20:00 +29°C° 0 mm 2 mps 736 mmHg 23%
    21:00 +28°C° 0 mm 2 mps 737 mmHg 24%
    22:00 +27°C° 0 mm 2 mps 737 mmHg 26%
    23:00 +26°C° 0 mm 2 mps 737 mmHg 27%
    Show more

    XHprof extension not loaded